KDHN

Dothan Regional Airport

Airport
ICAO code
KDHN
IATA Code
DHN
Summary
ICAO Region
NAM
ICAO Territory
Location

Dothan, Alabama

Serving
Dothan
Elevation
401 ft
Coordinates
31° 19' 16" N , 85° 26' 58" W
KCC
Airport WX
Cumulonimbus
Metar
KDHN 181353Z 29005KT 10SM FEW004 21/19 A3016 RMK AO2 SLP208 T02060194 $

Description

Regional airport serving the city of Dothan and south eastern Alabama, USA.

Airport map

Aerial View

SKYbrary Partners:

Safety knowledge contributed by: